レモン彗星

C/2018 U1 ( Lemmon )

English version
Home page
Updated on August 15, 2020

---------------------------------------------------------------------

・ プロフィール

発見日 2018年10月27日
発見光度 20.0等
発見者 R. A. Kowalski (Mount Lemmon Survey)

・ 写真集

・ 軌道要素

Epoch 2021 Nov. 2.0 TT = JDT 2459520.5
T 2021 Nov. 3.07696 TT                                  Rudenko
q   4.9928879            (2000.0)            P               Q
z  -0.0002782      Peri.  180.46487     -0.25316741     -0.30190040
 +/-0.0000009      Node    75.48049     -0.88450049     +0.45707420
e   1.0013888      Incl.  108.29877     -0.39187390     -0.83662376
From 1001 observations 2018 Oct. 27-2020 Aug. 1, mean residual 0".4.

・ 星図

・ 光度変化

        m1 = 4.5 + 5 logΔ + 10.0 log r

---------------------------------------------------------------------

軌道要素はM.P.E.C. 2020-P19に掲載されたものです。
星図はステラナビゲータ Ver.10 (アストロアーツ) で作成したものです。
光度グラフはComet for Windowsで作成したものです。

---------------------------------------------------------------------

Copyright(C) Seiichi Yoshida (comet@aerith.net). All rights reserved.